TimeCDT,TemperatureF,Dew PointF,Humidity,Sea Level PressureIn,VisibilityMPH,Wind Direction,Wind SpeedMPH,Gust SpeedMPH,PrecipitationIn,Events,Conditions,WindDirDegrees,DateUTC
12:15 AM,66.6,55.4,67,30.20,10.0,SSE,12.7,-,N/A,,Mostly Cloudy,150,2013-03-28 05:15:00
12:35 AM,66.6,55.4,67,30.20,10.0,SSE,15.0,-,N/A,,Mostly Cloudy,150,2013-03-28 05:35:00
12:55 AM,66.6,55.4,67,30.19,10.0,SSE,15.0,-,N/A,,Mostly Cloudy,150,2013-03-28 05:55:00
1:15 AM,66.6,55.6,68,30.19,10.0,SSE,12.7,-,N/A,,Mostly Cloudy,150,2013-03-28 06:15:00
1:35 AM,66.6,55.9,69,30.19,10.0,SSE,15.0,19.6,N/A,,Mostly Cloudy,160,2013-03-28 06:35:00
1:55 AM,66.7,56.3,69,30.19,10.0,SSE,13.8,-,N/A,,Mostly Cloudy,150,2013-03-28 06:55:00
2:15 AM,66.6,56.3,69,30.19,10.0,SSE,11.5,-,N/A,,Mostly Cloudy,150,2013-03-28 07:15:00
2:35 AM,66.6,56.5,70,30.18,10.0,SSE,10.4,-,N/A,,Mostly Cloudy,160,2013-03-28 07:35:00
2:55 AM,66.6,56.8,71,30.18,10.0,SSE,10.4,-,N/A,,Mostly Cloudy,150,2013-03-28 07:55:00
3:15 AM,66.4,57.0,72,30.17,10.0,SSE,9.2,-,N/A,,Mostly Cloudy,150,2013-03-28 08:15:00
3:35 AM,66.4,57.2,72,30.16,10.0,SSE,11.5,-,N/A,,Mostly Cloudy,150,2013-03-28 08:35:00
3:55 AM,66.4,57.2,72,30.15,10.0,SSE,10.4,-,N/A,,Overcast,150,2013-03-28 08:55:00
4:15 AM,66.4,57.4,73,30.15,10.0,SE,12.7,-,N/A,,Overcast,140,2013-03-28 09:15:00
4:35 AM,66.6,57.7,73,30.15,10.0,SSE,12.7,-,N/A,,Overcast,150,2013-03-28 09:35:00
4:55 AM,66.4,57.6,73,30.15,10.0,SE,11.5,-,N/A,,Overcast,140,2013-03-28 09:55:00
5:15 AM,66.4,57.7,74,30.15,10.0,SE,11.5,-,N/A,,Overcast,140,2013-03-28 10:15:00
5:35 AM,66.4,57.7,74,30.14,10.0,SE,10.4,-,N/A,,Overcast,130,2013-03-28 10:35:00
5:55 AM,66.2,58.1,75,30.14,10.0,SE,10.4,-,N/A,,Overcast,130,2013-03-28 10:55:00
6:15 AM,66.2,58.1,75,30.14,10.0,SE,12.7,-,N/A,,Overcast,140,2013-03-28 11:15:00
6:35 AM,66.4,58.1,75,30.14,10.0,SE,11.5,-,N/A,,Overcast,130,2013-03-28 11:35:00
6:55 AM,66.4,58.3,75,30.15,10.0,SE,10.4,-,N/A,,Overcast,130,2013-03-28 11:55:00
7:15 AM,66.6,58.5,75,30.16,10.0,SE,10.4,-,N/A,,Overcast,130,2013-03-28 12:15:00
7:35 AM,66.7,58.6,75,30.16,10.0,SE,11.5,-,N/A,,Overcast,130,2013-03-28 12:35:00
7:55 AM,66.7,58.6,75,30.16,10.0,ESE,11.5,-,N/A,,Overcast,120,2013-03-28 12:55:00
8:15 AM,67.1,59.0,75,30.16,10.0,ESE,11.5,-,N/A,,Overcast,120,2013-03-28 13:15:00
8:35 AM,67.8,59.2,74,30.16,10.0,ESE,13.8,-,N/A,,Overcast,120,2013-03-28 13:35:00
8:55 AM,68.9,59.2,71,30.17,10.0,SE,15.0,-,N/A,,Overcast,130,2013-03-28 13:55:00
9:15 AM,69.8,59.4,69,30.18,10.0,SE,16.1,-,N/A,,Mostly Cloudy,130,2013-03-28 14:15:00
9:35 AM,70.5,59.4,68,30.18,10.0,SE,16.1,-,N/A,,Mostly Cloudy,140,2013-03-28 14:35:00
9:55 AM,71.4,59.2,65,30.19,10.0,SSE,17.3,-,N/A,,Mostly Cloudy,150,2013-03-28 14:55:00
10:15 AM,71.6,59.0,64,30.20,10.0,SSE,13.8,-,N/A,,Mostly Cloudy,150,2013-03-28 15:15:00
10:35 AM,72.5,58.8,62,30.20,10.0,SSE,17.3,-,N/A,,Mostly Cloudy,150,2013-03-28 15:35:00
10:55 AM,72.7,58.5,61,30.20,10.0,SSE,17.3,-,N/A,,Overcast,150,2013-03-28 15:55:00
11:15 AM,73.4,58.1,59,30.20,10.0,SE,18.4,-,N/A,,Mostly Cloudy,140,2013-03-28 16:15:00
11:35 AM,73.6,58.1,58,30.20,10.0,SE,18.4,24.2,N/A,,Mostly Cloudy,140,2013-03-28 16:35:00
11:55 AM,74.5,57.9,56,30.20,10.0,SE,18.4,-,N/A,,Scattered Clouds,130,2013-03-28 16:55:00
12:15 PM,74.3,57.6,56,30.20,10.0,SE,19.6,25.3,N/A,,Scattered Clouds,140,2013-03-28 17:15:00
12:35 PM,74.3,57.6,56,30.20,10.0,SE,20.7,-,N/A,,Scattered Clouds,140,2013-03-28 17:35:00
12:55 PM,74.8,57.4,54,30.19,10.0,SE,19.6,24.2,N/A,,Scattered Clouds,130,2013-03-28 17:55:00
1:15 PM,75.6,57.6,53,30.19,10.0,SE,23.0,26.5,N/A,,Scattered Clouds,140,2013-03-28 18:15:00
1:35 PM,75.4,57.9,54,30.19,10.0,SE,21.9,-,N/A,,Scattered Clouds,130,2013-03-28 18:35:00
1:55 PM,75.6,58.1,55,30.18,10.0,SE,20.7,25.3,N/A,,Scattered Clouds,140,2013-03-28 18:55:00
2:15 PM,76.5,58.3,53,30.17,10.0,SE,20.7,25.3,N/A,,Scattered Clouds,140,2013-03-28 19:15:00
2:35 PM,75.4,58.3,55,30.16,10.0,SE,23.0,-,N/A,,Scattered Clouds,140,2013-03-28 19:35:00
2:55 PM,75.6,58.5,55,30.16,10.0,SE,19.6,26.5,N/A,,Mostly Cloudy,130,2013-03-28 19:55:00
3:15 PM,75.9,58.1,54,30.15,10.0,SE,20.7,26.5,N/A,,Scattered Clouds,140,2013-03-28 20:15:00
3:35 PM,76.3,58.1,53,30.14,10.0,SE,18.4,26.5,N/A,,Scattered Clouds,140,2013-03-28 20:35:00
3:55 PM,76.1,58.3,54,30.13,10.0,SE,19.6,25.3,N/A,,Scattered Clouds,140,2013-03-28 20:55:00
4:15 PM,75.7,58.5,55,30.13,10.0,SE,19.6,26.5,N/A,,Scattered Clouds,140,2013-03-28 21:15:00
4:35 PM,77.0,58.3,52,30.13,10.0,SE,21.9,26.5,N/A,,Scattered Clouds,140,2013-03-28 21:35:00
4:55 PM,75.6,57.7,54,30.13,10.0,SE,20.7,-,N/A,,Scattered Clouds,140,2013-03-28 21:55:00
5:15 PM,75.2,58.3,56,30.13,10.0,SE,20.7,26.5,N/A,,Scattered Clouds,130,2013-03-28 22:15:00
5:35 PM,75.4,58.5,56,30.13,10.0,SE,18.4,-,N/A,,Scattered Clouds,140,2013-03-28 22:35:00
5:55 PM,75.2,58.6,56,30.13,10.0,SE,20.7,27.6,N/A,,Scattered Clouds,140,2013-03-28 22:55:00
6:15 PM,74.3,58.6,58,30.13,10.0,SSE,19.6,27.6,N/A,,Mostly Cloudy,150,2013-03-28 23:15:00
6:35 PM,73.6,58.3,59,30.14,10.0,SE,20.7,24.2,N/A,,Scattered Clouds,140,2013-03-28 23:35:00
6:55 PM,72.9,58.6,61,30.14,10.0,SE,19.6,-,N/A,,Scattered Clouds,140,2013-03-28 23:55:00
7:15 PM,72.5,58.6,62,30.15,10.0,SE,17.3,-,N/A,,Scattered Clouds,140,2013-03-29 00:15:00
7:35 PM,71.8,58.8,64,30.15,10.0,SE,16.1,-,N/A,,Scattered Clouds,140,2013-03-29 00:35:00
7:55 PM,70.9,58.6,65,30.15,10.0,SE,17.3,-,N/A,,Scattered Clouds,130,2013-03-29 00:55:00
8:15 PM,70.2,58.5,66,30.16,10.0,SE,13.8,-,N/A,,Scattered Clouds,130,2013-03-29 01:15:00
8:35 PM,69.8,58.6,68,30.16,10.0,SE,10.4,-,N/A,,Scattered Clouds,140,2013-03-29 01:35:00
8:55 PM,68.9,59.0,71,30.17,10.0,SE,9.2,-,N/A,,Scattered Clouds,130,2013-03-29 01:55:00
9:15 PM,68.4,59.5,73,30.16,10.0,ESE,9.2,-,N/A,,Scattered Clouds,120,2013-03-29 02:15:00
9:35 PM,67.5,59.7,76,30.17,10.0,ESE,9.2,-,N/A,,Clear,120,2013-03-29 02:35:00
9:55 PM,66.7,59.9,79,30.17,10.0,ESE,9.2,-,N/A,,Clear,110,2013-03-29 02:55:00
10:15 PM,66.2,59.7,80,30.17,10.0,ESE,9.2,-,N/A,,Clear,120,2013-03-29 03:15:00
10:35 PM,65.7,59.5,81,30.18,10.0,ESE,8.1,-,N/A,,Clear,110,2013-03-29 03:35:00
10:55 PM,65.5,59.7,82,30.18,10.0,ESE,9.2,-,N/A,,Clear,110,2013-03-29 03:55:00
11:15 PM,64.8,59.4,83,30.18,10.0,East,9.2,-,N/A,,Clear,100,2013-03-29 04:15:00
11:35 PM,64.6,59.5,84,30.18,10.0,ESE,8.1,-,N/A,,Clear,120,2013-03-29 04:35:00
11:55 PM,64.4,59.9,85,30.18,10.0,ESE,8.1,-,N/A,,Clear,120,2013-03-29 04:55:00